• In Uzbekistan
  • List of Countries
  • For 7 days
  • Water Temperature
  • Satellite Maps
  • Weather Map
  • Weather Widgets
  • user-avatar
    Login

    Hourly Weather Linz

    Today, 27 June, Tuesday

    Time Temperature Precipitation Wind Pressure Humidity
    00:00 +18°C° 0 mm 2 mps 730 mmHg 87%
    01:00 +19°C° 0 mm 1 mps 730 mmHg 85%
    02:00 +19°C° 0.1 mm 1 mps 730 mmHg 86%
    03:00 +18°C° 0.1 mm 1 mps 730 mmHg 87%
    04:00 +18°C° 0.1 mm 1 mps 730 mmHg 88%
    05:00 +19°C° 0.1 mm 1 mps 730 mmHg 85%
    06:00 +21°C° 0.1 mm 1 mps 730 mmHg 82%
    07:00 +23°C° 0.1 mm 1 mps 730 mmHg 79%
    08:00 +24°C° 0 mm 1 mps 730 mmHg 75%
    09:00 +25°C° 0 mm 1 mps 730 mmHg 71%
    10:00 +26°C° 0 mm 1 mps 730 mmHg 67%
    11:00 +27°C° 0.4 mm 1 mps 730 mmHg 65%
    12:00 +28°C° 0.4 mm 1 mps 729 mmHg 63%
    13:00 +29°C° 0.4 mm 1 mps 729 mmHg 61%
    14:00 +29°C° 0.6 mm 1 mps 729 mmHg 61%
    15:00 +29°C° 0.6 mm 1 mps 728 mmHg 62%
    16:00 +29°C° 0.6 mm 1 mps 728 mmHg 62%
    17:00 +28°C° 0.4 mm 1 mps 728 mmHg 69%
    18:00 +27°C° 0.4 mm 1 mps 727 mmHg 76%
    19:00 +25°C° 0.4 mm 1 mps 727 mmHg 83%
    20:00 +23°C° 0 mm 1 mps 727 mmHg 86%
    21:00 +21°C° 0 mm 1 mps 727 mmHg 88%
    22:00 +19°C° 0 mm 1 mps 727 mmHg 91%
    23:00 +19°C° 0 mm 1 mps 726 mmHg 90%

    Tomorrow, 28 June, Wednesday

    Time Temperature Precipitation Wind Pressure Humidity
    00:00 +19°C° 0 mm 1 mps 726 mmHg 89%
    01:00 +19°C° 0 mm 1 mps 726 mmHg 88%
    02:00 +19°C° 0 mm 1 mps 726 mmHg 88%
    03:00 +18°C° 0 mm 1 mps 725 mmHg 88%
    04:00 +18°C° 0 mm 1 mps 725 mmHg 88%
    05:00 +20°C° 0 mm 1 mps 725 mmHg 84%
    06:00 +22°C° 0 mm 1 mps 724 mmHg 80%
    07:00 +24°C° 0 mm 1 mps 724 mmHg 76%
    08:00 +25°C° 0 mm 1 mps 724 mmHg 69%
    09:00 +27°C° 0 mm 2 mps 723 mmHg 62%
    10:00 +29°C° 0 mm 2 mps 723 mmHg 55%
    11:00 +30°C° 0 mm 2 mps 723 mmHg 52%
    12:00 +31°C° 0 mm 2 mps 723 mmHg 49%
    13:00 +32°C° 0 mm 2 mps 722 mmHg 47%
    14:00 +31°C° 0.6 mm 2 mps 722 mmHg 54%
    15:00 +30°C° 0.6 mm 3 mps 722 mmHg 62%
    16:00 +28°C° 0.6 mm 4 mps 721 mmHg 70%
    17:00 +27°C° 0.7 mm 3 mps 721 mmHg 76%
    18:00 +26°C° 0.7 mm 2 mps 721 mmHg 83%
    19:00 +25°C° 0.7 mm 1 mps 721 mmHg 89%
    20:00 +23°C° 0.8 mm 1 mps 720 mmHg 90%
    21:00 +22°C° 0.8 mm 1 mps 720 mmHg 92%
    22:00 +20°C° 0.8 mm 1 mps 719 mmHg 93%
    23:00 +20°C° 0.4 mm 1 mps 719 mmHg 93%

    Day after tomorrow, 29 June, Thursday

    Time Temperature Precipitation Wind Pressure Humidity
    00:00 +20°C° 0.4 mm 1 mps 719 mmHg 94%
    01:00 +19°C° 0.4 mm 2 mps 718 mmHg 94%
    02:00 +18°C° 0.6 mm 2 mps 718 mmHg 95%
    03:00 +18°C° 0.6 mm 2 mps 718 mmHg 96%
    04:00 +18°C° 0.6 mm 2 mps 718 mmHg 97%
    05:00 +18°C° 0.8 mm 3 mps 718 mmHg 96%
    06:00 +18°C° 0.8 mm 4 mps 718 mmHg 95%
    07:00 +19°C° 0.8 mm 5 mps 718 mmHg 94%
    08:00 +19°C° 0.2 mm 5 mps 719 mmHg 91%
    09:00 +19°C° 0.2 mm 6 mps 719 mmHg 88%
    10:00 +19°C° 0.2 mm 6 mps 720 mmHg 85%
    11:00 +20°C° 0.2 mm 6 mps 720 mmHg 82%
    12:00 +20°C° 0.2 mm 6 mps 721 mmHg 79%
    13:00 +20°C° 0.2 mm 6 mps 722 mmHg 75%
    14:00 +20°C° 0.2 mm 5 mps 722 mmHg 78%
    15:00 +20°C° 0.2 mm 5 mps 722 mmHg 81%
    16:00 +19°C° 0.2 mm 4 mps 722 mmHg 84%
    17:00 +18°C° 0.3 mm 4 mps 723 mmHg 87%
    18:00 +18°C° 0.3 mm 4 mps 723 mmHg 89%
    19:00 +17°C° 0.3 mm 4 mps 724 mmHg 92%
    20:00 +17°C° 0.2 mm 4 mps 724 mmHg 91%
    21:00 +16°C° 0.2 mm 3 mps 725 mmHg 91%
    22:00 +16°C° 0.2 mm 3 mps 726 mmHg 91%
    23:00 +14°C° 0 mm 3 mps 726 mmHg 90%

    30 June, Friday

    Time Temperature Precipitation Wind Pressure Humidity
    00:00 +14°C° 0 mm 3 mps 726 mmHg 89%
    01:00 +13°C° 0 mm 3 mps 727 mmHg 88%
    02:00 +12°C° 0 mm 3 mps 727 mmHg 88%
    03:00 +12°C° 0 mm 2 mps 727 mmHg 88%
    04:00 +10°C° 0 mm 2 mps 727 mmHg 88%
    05:00 +13°C° 0 mm 2 mps 727 mmHg 83%
    06:00 +15°C° 0 mm 2 mps 727 mmHg 78%
    07:00 +17°C° 0 mm 2 mps 728 mmHg 74%
    08:00 +18°C° 0 mm 2 mps 728 mmHg 68%
    09:00 +20°C° 0 mm 3 mps 728 mmHg 62%
    10:00 +21°C° 0 mm 3 mps 728 mmHg 56%
    11:00 +21°C° 0 mm 3 mps 728 mmHg 56%
    12:00 +22°C° 0 mm 3 mps 728 mmHg 55%
    13:00 +24°C° 0 mm 3 mps 728 mmHg 55%
    14:00 +23°C° 0 mm 2 mps 728 mmHg 56%
    15:00 +23°C° 0 mm 2 mps 728 mmHg 58%
    16:00 +23°C° 0 mm 2 mps 728 mmHg 59%
    17:00 +21°C° 0.1 mm 2 mps 728 mmHg 66%
    18:00 +20°C° 0.1 mm 2 mps 728 mmHg 73%
    19:00 +20°C° 0.1 mm 1 mps 728 mmHg 80%
    20:00 +18°C° 0.2 mm 2 mps 729 mmHg 84%
    21:00 +17°C° 0.2 mm 2 mps 729 mmHg 87%
    22:00 +16°C° 0.2 mm 2 mps 729 mmHg 91%
    23:00 +15°C° 0.1 mm 2 mps 729 mmHg 92%

    1 July, Saturday

    Time Temperature Precipitation Wind Pressure Humidity
    00:00 +15°C° 0.1 mm 2 mps 729 mmHg 93%
    01:00 +14°C° 0.1 mm 1 mps 729 mmHg 94%
    02:00 +13°C° 0 mm 1 mps 729 mmHg 94%
    03:00 +13°C° 0 mm 1 mps 729 mmHg 94%
    04:00 +12°C° 0 mm 1 mps 729 mmHg 94%
    05:00 +14°C° 0 mm 1 mps 729 mmHg 88%
    06:00 +16°C° 0 mm 1 mps 730 mmHg 82%
    07:00 +18°C° 0 mm 1 mps 730 mmHg 76%
    08:00 +19°C° 0 mm 2 mps 730 mmHg 68%
    09:00 +20°C° 0 mm 3 mps 730 mmHg 61%
    10:00 +22°C° 0 mm 4 mps 730 mmHg 53%
    11:00 +22°C° 0 mm 4 mps 730 mmHg 52%
    12:00 +23°C° 0 mm 4 mps 730 mmHg 52%
    13:00 +23°C° 0 mm 5 mps 730 mmHg 51%
    14:00 +23°C° 0.1 mm 5 mps 730 mmHg 54%
    15:00 +23°C° 0.1 mm 5 mps 730 mmHg 57%
    16:00 +23°C° 0.1 mm 5 mps 730 mmHg 60%
    17:00 +21°C° 0.3 mm 4 mps 730 mmHg 69%
    18:00 +20°C° 0.3 mm 4 mps 730 mmHg 78%
    19:00 +18°C° 0.3 mm 3 mps 731 mmHg 86%
    20:00 +17°C° 0.3 mm 3 mps 731 mmHg 89%
    21:00 +16°C° 0.3 mm 3 mps 732 mmHg 92%
    22:00 +14°C° 0.3 mm 3 mps 732 mmHg 95%
    23:00 +14°C° 0 mm 3 mps 732 mmHg 95%

    2 July, Sunday

    Time Temperature Precipitation Wind Pressure Humidity
    00:00 +13°C° 0 mm 3 mps 732 mmHg 95%
    01:00 +13°C° 0 mm 4 mps 733 mmHg 96%
    02:00 +13°C° 0.1 mm 4 mps 733 mmHg 96%
    03:00 +13°C° 0.1 mm 4 mps 733 mmHg 96%
    04:00 +13°C° 0.1 mm 4 mps 733 mmHg 96%
    05:00 +13°C° 0.5 mm 4 mps 733 mmHg 96%
    06:00 +14°C° 0.5 mm 4 mps 733 mmHg 96%
    07:00 +14°C° 0.5 mm 4 mps 734 mmHg 96%
    08:00 +14°C° 0.4 mm 4 mps 734 mmHg 95%
    09:00 +15°C° 0.4 mm 4 mps 734 mmHg 94%
    10:00 +15°C° 0.4 mm 4 mps 734 mmHg 93%
    11:00 +15°C° 0.2 mm 4 mps 734 mmHg 91%
    12:00 +17°C° 0.2 mm 4 mps 734 mmHg 90%
    13:00 +17°C° 0.2 mm 4 mps 734 mmHg 88%
    14:00 +18°C° 0.1 mm 4 mps 734 mmHg 83%
    15:00 +19°C° 0.1 mm 5 mps 734 mmHg 78%
    16:00 +20°C° 0.1 mm 5 mps 734 mmHg 72%
    17:00 +19°C° 0.1 mm 4 mps 734 mmHg 77%
    18:00 +19°C° 0.1 mm 3 mps 734 mmHg 81%
    19:00 +18°C° 0.1 mm 3 mps 734 mmHg 85%
    20:00 +17°C° 0 mm 3 mps 734 mmHg 88%
    21:00 +16°C° 0 mm 2 mps 734 mmHg 92%
    22:00 +15°C° 0 mm 2 mps 735 mmHg 95%
    23:00 +14°C° 0.2 mm 3 mps 735 mmHg 96%
    Show more